^^
Station Historical Data
Daily Summary for January 12, 2018 Units:  Both    English   Metric
« Previous Day
Next Day »
Daily Weekly Monthly Yearly Custom
  High: Low: Average:
Temperature: TemperatureC °F /  -17.8 °C -6.9 °F /  -21.6 °C -4.1 °F /  -20.1 °C
Dew Point: DewpointC °F /  -17.8 °C -8.0 °F /  -22.2 °C -5.1 °F /  -20.6 °C
Humidity: Humidity% 92% 92%
Wind Speed: WindSpeedKMHmph /  0km/h - 0mph /  0km/h
Wind Gust: WindSpeedGustKMHmph /  0km/h - -
Wind- - ENE
Pressure: PressurehPa in /  0 hPa 1035.1 in /  35048.5 hPa -
Precipitation: 0.0 in /  0 mm    
Historical Graphs
 
 
Tabular Data for January 12, 2018
Time Temperature Dew Point Pressure Wind Wind Speed Wind Gust Humidity Rainfall Rate (Hourly) solar Conditions
TemperatureC °F /  -17.8 °C DewpointC °F /  -17.8 °C PressurehPain /  0hPa Calm     Humidity% HourlyPrecipMMin /  0mm SoftwareType W/m2 Conditions
00:02 -2.4 °F /  -19.1 °C -3.4 °F /  -19.7 °C 1035.1in /  35048.5hPa Calm     93% 0.0in /  0mm WeatherDisplay:10.37 W/m2 FEW
00:07 -2.4 °F /  -19.1 °C -3.4 °F /  -19.7 °C 1035.1in /  35048.5hPa Calm     93% 0.0in /  0mm WeatherDisplay:10.37 W/m2 FEW
00:18 -2.4 °F /  -19.1 °C -3.4 °F /  -19.7 °C 1035.1in /  35048.5hPa Calm     93% 0.0in /  0mm WeatherDisplay:10.37 W/m2 FEW
00:23 -2.4 °F /  -19.1 °C -3.4 °F /  -19.7 °C 1035.4in /  35058.6hPa Calm     93% 0.0in /  0mm WeatherDisplay:10.37 W/m2 FEW
00:28 -2.4 °F /  -19.1 °C -3.4 °F /  -19.7 °C 1035.1in /  35048.5hPa ENE 0.3mph /  0.5km/h 3.2mph /  5.1km/h 93% 0.0in /  0mm WeatherDisplay:10.37 W/m2 FEW
00:40 -2.4 °F /  -19.1 °C -3.4 °F /  -19.7 °C 1035.4in /  35058.6hPa Calm     93% 0.0in /  0mm WeatherDisplay:10.37 W/m2 FEW
00:45 -2.4 °F /  -19.1 °C -3.4 °F /  -19.7 °C 1035.4in /  35058.6hPa Calm     93% 0.0in /  0mm WeatherDisplay:10.37 W/m2 FEW
00:50 -2.4 °F /  -19.1 °C -3.4 °F /  -19.7 °C 1035.4in /  35058.6hPa Calm     93% 0.0in /  0mm WeatherDisplay:10.37 W/m2 FEW
01:00 -2.4 °F /  -19.1 °C -3.4 °F /  -19.7 °C 1035.8in /  35072.2hPa Calm     93% 0.0in /  0mm WeatherDisplay:10.37 W/m2 FEW
01:05 -2.4 °F /  -19.1 °C -3.4 °F /  -19.7 °C 1035.8in /  35072.2hPa Calm     93% 0.0in /  0mm WeatherDisplay:10.37 W/m2 FEW
01:06 -2.4 °F /  -19.1 °C -3.4 °F /  -19.7 °C 1035.8in /  35072.2hPa Calm     93% 0.0in /  0mm WeatherDisplay:10.37 W/m2 FEW
01:11 -2.4 °F /  -19.1 °C -3.4 °F /  -19.7 °C 1035.8in /  35072.2hPa Calm     93% 0.0in /  0mm WeatherDisplay:10.37 W/m2 FEW
01:16 -2.4 °F /  -19.1 °C -3.4 °F /  -19.7 °C 1035.8in /  35072.2hPa Calm     93% 0.0in /  0mm WeatherDisplay:10.37 W/m2 FEW
01:19 -2.4 °F /  -19.1 °C -3.4 °F /  -19.7 °C 1035.8in /  35072.2hPa Calm     93% 0.0in /  0mm WeatherDisplay:10.37 W/m2 FEW
01:24 -2.4 °F /  -19.1 °C -3.4 °F /  -19.7 °C 1035.8in /  35072.2hPa Calm     93% 0.0in /  0mm WeatherDisplay:10.37 W/m2 FEW
01:29 -2.4 °F /  -19.1 °C -3.4 °F /  -19.7 °C 1036.1in /  35082.3hPa Calm     93% 0.0in /  0mm WeatherDisplay:10.37 W/m2 FEW
01:37 -2.4 °F /  -19.1 °C -3.4 °F /  -19.7 °C 1036.1in /  35082.3hPa Calm     93% 0.0in /  0mm WeatherDisplay:10.37 W/m2 FEW
01:43 -2.4 °F /  -19.1 °C -3.4 °F /  -19.7 °C 1036.1in /  35082.3hPa Calm     93% 0.0in /  0mm WeatherDisplay:10.37 W/m2 FEW
01:48 -2.4 °F /  -19.1 °C -3.4 °F /  -19.7 °C 1036.1in /  35082.3hPa Calm     93% 0.0in /  0mm WeatherDisplay:10.37 W/m2 FEW
01:53 -2.4 °F /  -19.1 °C -3.4 °F /  -19.7 °C 1036.1in /  35082.3hPa Calm     93% 0.0in /  0mm WeatherDisplay:10.37 W/m2 FEW
01:55 -2.4 °F /  -19.1 °C -3.4 °F /  -19.7 °C 1036.1in /  35082.3hPa Calm     93% 0.0in /  0mm WeatherDisplay:10.37 W/m2 FEW
02:00 -2.4 °F /  -19.1 °C -3.4 °F /  -19.7 °C 1036.1in /  35082.3hPa Calm     93% 0.0in /  0mm WeatherDisplay:10.37 W/m2 FEW
02:05 -2.4 °F /  -19.1 °C -3.4 °F /  -19.7 °C 1036.1in /  35082.3hPa Calm     93% 0.0in /  0mm WeatherDisplay:10.37 W/m2 FEW
02:10 -2.4 °F /  -19.1 °C -3.4 °F /  -19.7 °C 1036.1in /  35082.3hPa ENE 0.2mph /  0.3km/h 1.9mph /  3.1km/h 93% 0.0in /  0mm WeatherDisplay:10.37 W/m2 FEW
02:15 -2.4 °F /  -19.1 °C -3.4 °F /  -19.7 °C 1036.1in /  35082.3hPa Calm     93% 0.0in /  0mm WeatherDisplay:10.37 W/m2 FEW
02:24 -2.4 °F /  -19.1 °C -3.4 °F /  -19.7 °C 1036.1in /  35082.3hPa Calm     93% 0.0in /  0mm WeatherDisplay:10.37 W/m2 FEW
02:32 -2.4 °F /  -19.1 °C -3.4 °F /  -19.7 °C 1036.1in /  35082.3hPa Calm     93% 0.0in /  0mm WeatherDisplay:10.37 W/m2 FEW
02:37 -2.4 °F /  -19.1 °C -3.4 °F /  -19.7 °C 1036.1in /  35082.3hPa Calm     93% 0.0in /  0mm WeatherDisplay:10.37 W/m2 FEW
02:44 -2.5 °F /  -19.2 °C -3.5 °F /  -19.7 °C 1036.1in /  35082.3hPa Calm     93% 0.0in /  0mm WeatherDisplay:10.37 W/m2 FEW
02:49 -2.5 °F /  -19.2 °C -3.5 °F /  -19.7 °C 1036.1in /  35082.3hPa Calm     93% 0.0in /  0mm WeatherDisplay:10.37 W/m2 FEW
03:04 -2.5 °F /  -19.2 °C -3.5 °F /  -19.7 °C 1036.1in /  35082.3hPa Calm     93% 0.0in /  0mm WeatherDisplay:10.37 W/m2 FEW
03:09 -2.6 °F /  -19.2 °C -3.6 °F /  -19.8 °C 1036.1in /  35082.3hPa Calm     93% 0.0in /  0mm WeatherDisplay:10.37 W/m2 FEW
03:14 -2.6 °F /  -19.2 °C -3.6 °F /  -19.8 °C 1036.5in /  35095.9hPa Calm     93% 0.0in /  0mm WeatherDisplay:10.37 W/m2 FEW
03:19 -2.7 °F /  -19.3 °C -3.7 °F /  -19.8 °C 1036.5in /  35095.9hPa Calm     93% 0.0in /  0mm WeatherDisplay:10.37 W/m2 FEW
03:24 -2.7 °F /  -19.3 °C -3.7 °F /  -19.8 °C 1036.5in /  35095.9hPa Calm     93% 0.0in /  0mm WeatherDisplay:10.37 W/m2 FEW
03:32 -2.7 °F /  -19.3 °C -3.7 °F /  -19.8 °C 1036.5in /  35095.9hPa Calm     93% 0.0in /  0mm WeatherDisplay:10.37 W/m2 FEW
03:42 -2.8 °F /  -19.3 °C -3.8 °F /  -19.9 °C 1036.5in /  35095.9hPa Calm   5.6mph /  9km/h 93% 0.0in /  0mm WeatherDisplay:10.37 W/m2 FEW
03:45 -2.8 °F /  -19.3 °C -3.8 °F /  -19.9 °C 1036.5in /  35095.9hPa Calm     93% 0.0in /  0mm WeatherDisplay:10.37 W/m2 FEW
03:50 -2.8 °F /  -19.3 °C -3.8 °F /  -19.9 °C 1036.5in /  35095.9hPa Calm     93% 0.0in /  0mm WeatherDisplay:10.37 W/m2 FEW
03:55 -2.8 °F /  -19.3 °C -3.8 °F /  -19.9 °C 1036.5in /  35095.9hPa Calm     93% 0.0in /  0mm WeatherDisplay:10.37 W/m2 FEW
04:10 -2.8 °F /  -19.3 °C -3.8 °F /  -19.9 °C 1036.8in /  35106hPa Calm     93% 0.0in /  0mm WeatherDisplay:10.37 W/m2 FEW
04:15 -2.9 °F /  -19.4 °C -3.9 °F /  -19.9 °C 1036.8in /  35106hPa Calm     93% 0.0in /  0mm WeatherDisplay:10.37 W/m2 FEW
04:20 -2.9 °F /  -19.4 °C -3.9 °F /  -19.9 °C 1036.8in /  35106hPa Calm     93% 0.0in /  0mm WeatherDisplay:10.37 W/m2 FEW
04:25 -2.9 °F /  -19.4 °C -3.9 °F /  -19.9 °C 1036.8in /  35106hPa ENE 2.1mph /  3.4km/h 3.7mph /  6km/h 93% 0.0in /  0mm WeatherDisplay:10.37 W/m2 FEW
04:35 -3.0 °F /  -19.4 °C -4.0 °F /  -20 °C 1036.8in /  35106hPa ENE 0.3mph /  0.5km/h 1.9mph /  3.1km/h 93% 0.0in /  0mm WeatherDisplay:10.37 W/m2 FEW
04:40 -3.1 °F /  -19.5 °C -4.0 °F /  -20 °C 1036.8in /  35106hPa Calm     93% 0.0in /  0mm WeatherDisplay:10.37 W/m2 FEW
04:45 -3.1 °F /  -19.5 °C -4.0 °F /  -20 °C 1037.1in /  35116.2hPa Calm     93% 0.0in /  0mm WeatherDisplay:10.37 W/m2 FEW
04:50 -3.2 °F /  -19.6 °C -4.1 °F /  -20.1 °C 1037.1in /  35116.2hPa Calm     93% 0.0in /  0mm WeatherDisplay:10.37 W/m2 FEW
04:57 -3.2 °F /  -19.6 °C -4.2 °F /  -20.1 °C 1037.1in /  35116.2hPa Calm     93% 0.0in /  0mm WeatherDisplay:10.37 W/m2 FEW
05:04 -3.3 °F /  -19.6 °C -4.3 °F /  -20.2 °C 1037.1in /  35116.2hPa Calm     93% 0.0in /  0mm WeatherDisplay:10.37 W/m2 FEW
05:09 -3.4 °F /  -19.7 °C -4.4 °F /  -20.2 °C 1037.1in /  35116.2hPa Calm     93% 0.0in /  0mm WeatherDisplay:10.37 W/m2 FEW
05:14 -3.6 °F /  -19.8 °C -4.5 °F /  -20.3 °C 1037.1in /  35116.2hPa Calm     93% 0.0in /  0mm WeatherDisplay:10.37 W/m2 FEW
05:19 -3.7 °F /  -19.8 °C -4.6 °F /  -20.3 °C 1037.5in /  35129.8hPa Calm     93% 0.0in /  0mm WeatherDisplay:10.37 W/m2 FEW
05:24 -3.8 °F /  -19.9 °C -4.9 °F /  -20.5 °C 1037.5in /  35129.8hPa Calm     92% 0.0in /  0mm WeatherDisplay:10.37 W/m2 FEW
05:29 -3.9 °F /  -19.9 °C -5.0 °F /  -20.6 °C 1037.5in /  35129.8hPa Calm     92% 0.0in /  0mm WeatherDisplay:10.37 W/m2 FEW
05:35 -4.0 °F /  -20 °C -4.9 °F /  -20.5 °C 1037.5in /  35129.8hPa Calm     93% 0.0in /  0mm WeatherDisplay:10.37 W/m2 FEW
05:49 -4.1 °F /  -20.1 °C -5.0 °F /  -20.6 °C 1037.5in /  35129.8hPa Calm     93% 0.0in /  0mm WeatherDisplay:10.37 W/m2 FEW
05:54 -4.1 °F /  -20.1 °C -5.1 °F /  -20.6 °C 1037.5in /  35129.8hPa Calm     93% 0.0in /  0mm WeatherDisplay:10.37 W/m2 FEW
05:59 -4.2 °F /  -20.1 °C -5.1 °F /  -20.6 °C 1037.8in /  35139.9hPa Calm     93% 0.0in /  0mm WeatherDisplay:10.37 W/m2 FEW
06:04 -4.2 °F /  -20.1 °C -5.2 °F /  -20.7 °C 1037.8in /  35139.9hPa Calm     93% 0.0in /  0mm WeatherDisplay:10.37 W/m2 FEW
06:09 -4.3 °F /  -20.2 °C -5.2 °F /  -20.7 °C 1037.8in /  35139.9hPa Calm     93% 0.0in /  0mm WeatherDisplay:10.37 W/m2 FEW
06:20 -4.4 °F /  -20.2 °C -5.3 °F /  -20.7 °C 1037.8in /  35139.9hPa Calm     93% 0.0in /  0mm WeatherDisplay:10.37 W/m2 FEW
06:25 -4.4 °F /  -20.2 °C -5.4 °F /  -20.8 °C 1037.8in /  35139.9hPa Calm     93% 0.0in /  0mm WeatherDisplay:10.37 W/m2 FEW
06:30 -4.4 °F /  -20.2 °C -5.4 °F /  -20.8 °C 1037.8in /  35139.9hPa Calm     93% 0.0in /  0mm WeatherDisplay:10.37 W/m2 FEW
06:35 -4.5 °F /  -20.3 °C -5.4 °F /  -20.8 °C 1037.8in /  35139.9hPa Calm     93% 0.0in /  0mm WeatherDisplay:10.37 W/m2 FEW
06:43 -4.6 °F /  -20.3 °C -5.5 °F /  -20.8 °C 1037.8in /  35139.9hPa Calm     93% 0.0in /  0mm WeatherDisplay:10.37 W/m2 FEW
06:48 -4.6 °F /  -20.3 °C -5.6 °F /  -20.9 °C 1037.8in /  35139.9hPa Calm     93% 0.0in /  0mm WeatherDisplay:10.37 W/m2 FEW
06:53 -4.7 °F /  -20.4 °C -5.6 °F /  -20.9 °C 1037.8in /  35139.9hPa Calm     93% 0.0in /  0mm WeatherDisplay:10.37 W/m2 FEW
06:58 -4.8 °F /  -20.4 °C -5.7 °F /  -20.9 °C 1037.8in /  35139.9hPa Calm     93% 0.0in /  0mm WeatherDisplay:10.37 W/m2 FEW
07:13 -5.0 °F /  -20.6 °C -5.9 °F /  -21.1 °C 1037.8in /  35139.9hPa Calm     93% 0.0in /  0mm WeatherDisplay:10.37 W/m2 FEW
07:18 -5.1 °F /  -20.6 °C -6.0 °F /  -21.1 °C 1038.1in /  35150.1hPa Calm     93% 0.0in /  0mm WeatherDisplay:10.37 W/m2 FEW
07:28 -5.2 °F /  -20.7 °C -6.2 °F /  -21.2 °C 1038.1in /  35150.1hPa Calm     93% 0.0in /  0mm WeatherDisplay:10.37 W/m2 FEW
07:33 -5.3 °F /  -20.7 °C -6.3 °F /  -21.3 °C 1038.1in /  35150.1hPa Calm     93% 0.0in /  0mm WeatherDisplay:10.37 W/m2 FEW
07:38 -5.4 °F /  -20.8 °C -6.4 °F /  -21.3 °C 1038.1in /  35150.1hPa Calm     93% 0.0in /  0mm WeatherDisplay:10.37 W/m2 FEW
07:43 -5.5 °F /  -20.8 °C -6.4 °F /  -21.3 °C 1038.1in /  35150.1hPa Calm     93% 0.0in /  0mm WeatherDisplay:10.37 W/m2 FEW
07:48 -5.7 °F /  -20.9 °C -6.8 °F /  -21.6 °C 1038.1in /  35150.1hPa Calm     92% 0.0in /  0mm WeatherDisplay:10.37 W/m2 FEW
07:58 -5.8 °F /  -21 °C -6.9 °F /  -21.6 °C 1038.1in /  35150.1hPa Calm     92% 0.0in /  0mm WeatherDisplay:10.37 W/m2 FEW
08:03 -5.9 °F /  -21.1 °C -7.1 °F /  -21.7 °C 1038.1in /  35150.1hPa Calm     92% 0.0in /  0mm WeatherDisplay:10.37 W/m2 FEW
08:10 -6.1 °F /  -21.2 °C -7.2 °F /  -21.8 °C 1038.5in /  35163.6hPa Calm     92% 0.0in /  0mm WeatherDisplay:10.37 W/m2 FEW
08:15 -6.2 °F /  -21.2 °C -7.3 °F /  -21.8 °C 1038.5in /  35163.6hPa Calm     92% 0.0in /  0mm WeatherDisplay:10.37 W/m2 FEW
08:20 -6.3 °F /  -21.3 °C -7.4 °F /  -21.9 °C 1038.5in /  35163.6hPa Calm     92% 0.0in /  0mm WeatherDisplay:10.37 W/m2 FEW
08:25 -6.3 °F /  -21.3 °C -7.4 °F /  -21.9 °C 1038.5in /  35163.6hPa Calm     92% 0.0in /  0mm WeatherDisplay:10.37 W/m2 FEW
08:39 -6.3 °F /  -21.3 °C -7.4 °F /  -21.9 °C 1038.8in /  35173.8hPa Calm     92% 0.0in /  0mm WeatherDisplay:10.37 W/m2 FEW
08:44 -6.3 °F /  -21.3 °C -7.4 °F /  -21.9 °C 1038.8in /  35173.8hPa Calm     92% 0.0in /  0mm WeatherDisplay:10.37 W/m2 FEW
08:49 -6.4 °F /  -21.3 °C -7.3 °F /  -21.8 °C 1038.8in /  35173.8hPa Calm     93% 0.0in /  0mm WeatherDisplay:10.37 W/m2 FEW
08:54 -6.5 °F /  -21.4 °C -7.6 °F /  -22 °C 1038.8in /  35173.8hPa Calm     92% 0.0in /  0mm WeatherDisplay:10.37 W/m2 FEW
08:59 -6.6 °F /  -21.4 °C -7.7 °F /  -22.1 °C 1038.8in /  35173.8hPa Calm     92% 0.0in /  0mm WeatherDisplay:10.37 W/m2 FEW
09:26 -6.7 °F /  -21.5 °C -7.8 °F /  -22.1 °C 1039.5in /  35197.5hPa Calm     92% 0.0in /  0mm WeatherDisplay:10.37 W/m2 FEW
09:31 -6.8 °F /  -21.6 °C -7.8 °F /  -22.1 °C 1039.5in /  35197.5hPa Calm     92% 0.0in /  0mm WeatherDisplay:10.37 W/m2 FEW
09:36 -6.8 °F /  -21.6 °C -7.9 °F /  -22.2 °C 1039.5in /  35197.5hPa Calm     92% 0.0in /  0mm WeatherDisplay:10.37 W/m2 FEW
09:46 -6.9 °F /  -21.6 °C -7.9 °F /  -22.2 °C 1039.8in /  35207.6hPa Calm     92% 0.0in /  0mm WeatherDisplay:10.37 W/m2 FEW
09:56 -6.9 °F /  -21.6 °C -8.0 °F /  -22.2 °C 1039.8in /  35207.6hPa Calm     92% 0.0in /  0mm WeatherDisplay:10.37 W/m2 FEW
10:01 -6.9 °F /  -21.6 °C -8.0 °F /  -22.2 °C 1039.8in /  35207.6hPa Calm     92% 0.0in /  0mm WeatherDisplay:10.37 W/m2 FEW
10:06 -6.9 °F /  -21.6 °C -8.0 °F /  -22.2 °C 1039.8in /  35207.6hPa Calm     92% 0.0in /  0mm WeatherDisplay:10.37 W/m2 FEW
10:11 -6.9 °F /  -21.6 °C -8.0 °F /  -22.2 °C 1039.8in /  35207.6hPa Calm     92% 0.0in /  0mm WeatherDisplay:10.37 W/m2 FEW
10:21 -6.9 °F /  -21.6 °C -8.0 °F /  -22.2 °C 1040.2in /  35221.2hPa Calm     92% 0.0in /  0mm WeatherDisplay:10.37 W/m2 FEW
10:31 -6.9 °F /  -21.6 °C -7.9 °F /  -22.2 °C 1040.2in /  35221.2hPa Calm     92% 0.0in /  0mm WeatherDisplay:10.37 W/m2 FEW
10:36 -6.8 °F /  -21.6 °C -7.9 °F /  -22.2 °C 1040.2in /  35221.2hPa Calm     92% 0.0in /  0mm WeatherDisplay:10.37 W/m2 FEW
10:41 -6.8 °F /  -21.6 °C -7.9 °F /  -22.2 °C 1040.2in /  35221.2hPa Calm     92% 0.0in /  0mm WeatherDisplay:10.37 W/m2 FEW
10:46 -6.7 °F /  -21.5 °C -7.8 °F /  -22.1 °C 1040.2in /  35221.2hPa Calm     92% 0.0in /  0mm WeatherDisplay:10.37 W/m2 FEW
10:53 -6.6 °F /  -21.4 °C -7.5 °F /  -21.9 °C 1040.2in /  35221.2hPa Calm     93% 0.0in /  0mm WeatherDisplay:10.37 W/m2 FEW
10:58 -6.5 °F /  -21.4 °C -7.4 °F /  -21.9 °C 1040.2in /  35221.2hPa Calm     93% 0.0in /  0mm WeatherDisplay:10.37 W/m2 FEW
11:03 -6.4 °F /  -21.3 °C -7.4 °F /  -21.9 °C 1040.2in /  35221.2hPa Calm     93% 0.0in /  0mm WeatherDisplay:10.37 W/m2 FEW
11:08 -6.4 °F /  -21.3 °C -7.4 °F /  -21.9 °C 1040.2in /  35221.2hPa Calm     93% 0.0in /  0mm WeatherDisplay:10.37 W/m2 FEW
11:16 -6.3 °F /  -21.3 °C -7.2 °F /  -21.8 °C 1040.2in /  35221.2hPa Calm     93% 0.0in /  0mm WeatherDisplay:10.37 W/m2 FEW
11:25 -6.2 °F /  -21.2 °C -7.1 °F /  -21.7 °C 1040.2in /  35221.2hPa Calm     93% 0.0in /  0mm WeatherDisplay:10.37 W/m2 FEW
11:30 -6.1 °F /  -21.2 °C -7.0 °F /  -21.7 °C 1040.2in /  35221.2hPa Calm     93% 0.0in /  0mm WeatherDisplay:10.37 W/m2 FEW
11:35 -5.9 °F /  -21.1 °C -6.9 °F /  -21.6 °C 1040.5in /  35231.3hPa Calm     93% 0.0in /  0mm WeatherDisplay:10.37 W/m2 FEW
11:41 -5.8 °F /  -21 °C -6.8 °F /  -21.6 °C 1040.5in /  35231.3hPa Calm     93% 0.0in /  0mm WeatherDisplay:10.37 W/m2 FEW
11:46 -5.7 °F /  -20.9 °C -6.6 °F /  -21.4 °C 1040.5in /  35231.3hPa Calm     93% 0.0in /  0mm WeatherDisplay:10.37 W/m2 FEW
11:54 -5.4 °F /  -20.8 °C -6.4 °F /  -21.3 °C 1040.5in /  35231.3hPa Calm     93% 0.0in /  0mm WeatherDisplay:10.37 W/m2 FEW
12:04 -5.2 °F /  -20.7 °C -6.1 °F /  -21.2 °C 1040.5in /  35231.3hPa Calm     93% 0.0in /  0mm WeatherDisplay:10.37 W/m2 FEW
12:09 -5.1 °F /  -20.6 °C -6.0 °F /  -21.1 °C 1040.5in /  35231.3hPa Calm     93% 0.0in /  0mm WeatherDisplay:10.37 W/m2 FEW
12:14 -5.0 °F /  -20.6 °C -5.9 °F /  -21.1 °C 1040.5in /  35231.3hPa Calm     93% 0.0in /  0mm WeatherDisplay:10.37 W/m2 FEW
12:19 -4.9 °F /  -20.5 °C -5.8 °F /  -21 °C 1040.5in /  35231.3hPa Calm     93% 0.0in /  0mm WeatherDisplay:10.37 W/m2 FEW
12:31 -4.7 °F /  -20.4 °C -5.6 °F /  -20.9 °C 1040.5in /  35231.3hPa Calm     93% 0.0in /  0mm WeatherDisplay:10.37 W/m2 FEW
12:42 -4.5 °F /  -20.3 °C -5.4 °F /  -20.8 °C 1040.9in /  35244.9hPa Calm     93% 0.0in /  0mm WeatherDisplay:10.37 W/m2 FEW
12:49 -4.3 °F /  -20.2 °C -5.3 °F /  -20.7 °C 1040.9in /  35244.9hPa Calm     93% 0.0in /  0mm WeatherDisplay:10.37 W/m2 FEW
12:58 -4.2 °F /  -20.1 °C -5.2 °F /  -20.7 °C 1040.9in /  35244.9hPa Calm     93% 0.0in /  0mm WeatherDisplay:10.37 W/m2 FEW
13:03 -4.2 °F /  -20.1 °C -5.1 °F /  -20.6 °C 1040.5in /  35231.3hPa Calm     93% 0.0in /  0mm WeatherDisplay:10.37 W/m2 FEW
13:11 -4.2 °F /  -20.1 °C -5.1 °F /  -20.6 °C 1040.9in /  35244.9hPa Calm     93% 0.0in /  0mm WeatherDisplay:10.37 W/m2 FEW
13:16 -4.1 °F /  -20.1 °C -5.1 °F /  -20.6 °C 1040.9in /  35244.9hPa Calm     93% 0.0in /  0mm WeatherDisplay:10.37 W/m2 FEW
13:21 -4.1 °F /  -20.1 °C -5.0 °F /  -20.6 °C 1040.9in /  35244.9hPa Calm     93% 0.0in /  0mm WeatherDisplay:10.37 W/m2 FEW
13:26 -4.0 °F /  -20 °C -4.9 °F /  -20.5 °C 1040.9in /  35244.9hPa Calm     93% 0.0in /  0mm WeatherDisplay:10.37 W/m2 FEW
13:38 -3.9 °F /  -19.9 °C -4.9 °F /  -20.5 °C 1040.9in /  35244.9hPa Calm     93% 0.0in /  0mm WeatherDisplay:10.37 W/m2 FEW
13:43 -3.9 °F /  -19.9 °C -4.9 °F /  -20.5 °C 1040.9in /  35244.9hPa Calm     93% 0.0in /  0mm WeatherDisplay:10.37 W/m2 FEW
13:48 -3.9 °F /  -19.9 °C -4.9 °F /  -20.5 °C 1040.9in /  35244.9hPa Calm     93% 0.0in /  0mm WeatherDisplay:10.37 W/m2 FEW
13:56 -3.9 °F /  -19.9 °C -4.8 °F /  -20.4 °C 1040.9in /  35244.9hPa Calm     93% 0.0in /  0mm WeatherDisplay:10.37 W/m2 FEW
14:01 -3.9 °F /  -19.9 °C -4.8 °F /  -20.4 °C 1040.9in /  35244.9hPa ENE 0.3mph /  0.5km/h 5.6mph /  9km/h 93% 0.0in /  0mm WeatherDisplay:10.37 W/m2 FEW
14:06 -3.9 °F /  -19.9 °C -4.8 °F /  -20.4 °C 1040.9in /  35244.9hPa Calm     93% 0.0in /  0mm WeatherDisplay:10.37 W/m2 FEW
14:11 -3.9 °F /  -19.9 °C -4.8 °F /  -20.4 °C 1040.9in /  35244.9hPa Calm     93% 0.0in /  0mm WeatherDisplay:10.37 W/m2 FEW
14:16 -3.9 °F /  -19.9 °C -4.8 °F /  -20.4 °C 1040.9in /  35244.9hPa Calm     93% 0.0in /  0mm WeatherDisplay:10.37 W/m2 FEW
14:21 -3.9 °F /  -19.9 °C -4.8 °F /  -20.4 °C 1040.9in /  35244.9hPa Calm     93% 0.0in /  0mm WeatherDisplay:10.37 W/m2 FEW
14:26 -3.9 °F /  -19.9 °C -4.9 °F /  -20.5 °C 1040.9in /  35244.9hPa Calm     93% 0.0in /  0mm WeatherDisplay:10.37 W/m2 FEW
14:31 -3.9 °F /  -19.9 °C -4.9 °F /  -20.5 °C 1040.9in /  35244.9hPa Calm     93% 0.0in /  0mm WeatherDisplay:10.37 W/m2 FEW
14:36 -4.0 °F /  -20 °C -4.9 °F /  -20.5 °C 1040.9in /  35244.9hPa Calm     93% 0.0in /  0mm WeatherDisplay:10.37 W/m2 FEW
14:41 -4.0 °F /  -20 °C -4.9 °F /  -20.5 °C 1041.2in /  35255hPa Calm     93% 0.0in /  0mm WeatherDisplay:10.37 W/m2 FEW
14:49 -4.1 °F /  -20.1 °C -5.1 °F /  -20.6 °C 1041.2in /  35255hPa Calm     93% 0.0in /  0mm WeatherDisplay:10.37 W/m2 FEW
14:54 -4.2 °F /  -20.1 °C -5.1 °F /  -20.6 °C 1041.2in /  35255hPa Calm     93% 0.0in /  0mm WeatherDisplay:10.37 W/m2 FEW
15:04 -4.3 °F /  -20.2 °C -5.2 °F /  -20.7 °C 1041.2in /  35255hPa Calm     93% 0.0in /  0mm WeatherDisplay:10.37 W/m2 FEW
15:09 -4.3 °F /  -20.2 °C -5.3 °F /  -20.7 °C 1041.2in /  35255hPa Calm     93% 0.0in /  0mm WeatherDisplay:10.37 W/m2 FEW
15:14 -4.4 °F /  -20.2 °C -5.4 °F /  -20.8 °C 1041.2in /  35255hPa Calm     93% 0.0in /  0mm WeatherDisplay:10.37 W/m2 FEW
15:19 -4.4 °F /  -20.2 °C -5.4 °F /  -20.8 °C 1041.2in /  35255hPa Calm     93% 0.0in /  0mm WeatherDisplay:10.37 W/m2 FEW
15:29 -4.6 °F /  -20.3 °C -5.5 °F /  -20.8 °C 1041.2in /  35255hPa Calm     93% 0.0in /  0mm WeatherDisplay:10.37 W/m2 FEW
15:38 -4.7 °F /  -20.4 °C -5.6 °F /  -20.9 °C 1041.5in /  35265.2hPa Calm     93% 0.0in /  0mm WeatherDisplay:10.37 W/m2 FEW
15:44 -4.7 °F /  -20.4 °C -5.7 °F /  -20.9 °C 1041.5in /  35265.2hPa Calm     93% 0.0in /  0mm WeatherDisplay:10.37 W/m2 FEW
15:49 -4.7 °F /  -20.4 °C -5.7 °F /  -20.9 °C 1041.5in /  35265.2hPa Calm     93% 0.0in /  0mm WeatherDisplay:10.37 W/m2 FEW
15:54 -4.7 °F /  -20.4 °C -5.6 °F /  -20.9 °C 1041.5in /  35265.2hPa Calm     93% 0.0in /  0mm WeatherDisplay:10.37 W/m2 FEW
15:59 -4.6 °F /  -20.3 °C -5.6 °F /  -20.9 °C 1041.5in /  35265.2hPa Calm     93% 0.0in /  0mm WeatherDisplay:10.37 W/m2 FEW
16:04 -4.6 °F /  -20.3 °C -5.6 °F /  -20.9 °C 1041.5in /  35265.2hPa Calm     93% 0.0in /  0mm WeatherDisplay:10.37 W/m2 FEW
16:09 -4.6 °F /  -20.3 °C -5.5 °F /  -20.8 °C 1041.5in /  35265.2hPa Calm     93% 0.0in /  0mm WeatherDisplay:10.37 W/m2 FEW
16:14 -4.6 °F /  -20.3 °C -5.5 °F /  -20.8 °C 1041.5in /  35265.2hPa Calm     93% 0.0in /  0mm WeatherDisplay:10.37 W/m2 FEW
16:19 -4.5 °F /  -20.3 °C -5.4 °F /  -20.8 °C 1041.5in /  35265.2hPa Calm     93% 0.0in /  0mm WeatherDisplay:10.37 W/m2 FEW
16:26 -4.4 °F /  -20.2 °C -5.4 °F /  -20.8 °C 1041.5in /  35265.2hPa Calm     93% 0.0in /  0mm WeatherDisplay:10.37 W/m2 FEW
16:31 -4.4 °F /  -20.2 °C -5.4 °F /  -20.8 °C 1041.5in /  35265.2hPa Calm     93% 0.0in /  0mm WeatherDisplay:10.37 W/m2 FEW
16:38 -4.3 °F /  -20.2 °C -5.3 °F /  -20.7 °C 1041.5in /  35265.2hPa Calm     93% 0.0in /  0mm WeatherDisplay:10.37 W/m2 FEW
16:54 -4.2 °F /  -20.1 °C -5.1 °F /  -20.6 °C 1041.9in /  35278.7hPa Calm     93% 0.0in /  0mm WeatherDisplay:10.37 W/m2 FEW
16:59 -4.1 °F /  -20.1 °C -5.1 °F /  -20.6 °C 1041.9in /  35278.7hPa Calm     93% 0.0in /  0mm WeatherDisplay:10.37 W/m2 FEW
17:04 -4.1 °F /  -20.1 °C -5.0 °F /  -20.6 °C 1041.9in /  35278.7hPa Calm     93% 0.0in /  0mm WeatherDisplay:10.37 W/m2 FEW
17:09 -4.0 °F /  -20 °C -4.9 °F /  -20.5 °C 1041.9in /  35278.7hPa Calm     93% 0.0in /  0mm WeatherDisplay:10.37 W/m2 FEW
17:14 -3.9 °F /  -19.9 °C -4.9 °F /  -20.5 °C 1041.9in /  35278.7hPa Calm     93% 0.0in /  0mm WeatherDisplay:10.37 W/m2 FEW
17:19 -3.9 °F /  -19.9 °C -4.9 °F /  -20.5 °C 1041.9in /  35278.7hPa Calm     93% 0.0in /  0mm WeatherDisplay:10.37 W/m2 FEW
17:24 -3.9 °F /  -19.9 °C -4.9 °F /  -20.5 °C 1041.9in /  35278.7hPa Calm     93% 0.0in /  0mm WeatherDisplay:10.37 W/m2 FEW
17:29 -3.9 °F /  -19.9 °C -4.9 °F /  -20.5 °C 1041.9in /  35278.7hPa Calm     93% 0.0in /  0mm WeatherDisplay:10.37 W/m2 FEW
17:34 -3.9 °F /  -19.9 °C -4.9 °F /  -20.5 °C 1041.9in /  35278.7hPa Calm     93% 0.0in /  0mm WeatherDisplay:10.37 W/m2 FEW
17:39 -3.9 °F /  -19.9 °C -4.8 °F /  -20.4 °C 1041.9in /  35278.7hPa Calm     93% 0.0in /  0mm WeatherDisplay:10.37 W/m2 FEW
17:44 -3.9 °F /  -19.9 °C -4.8 °F /  -20.4 °C 1041.9in /  35278.7hPa ENE 1.8mph /  2.9km/h 3.7mph /  6km/h 93% 0.0in /  0mm WeatherDisplay:10.37 W/m2 FEW
17:51 -3.9 °F /  -19.9 °C -4.8 °F /  -20.4 °C 1041.9in /  35278.7hPa Calm     93% 0.0in /  0mm WeatherDisplay:10.37 W/m2 FEW
18:05 -3.9 °F /  -19.9 °C -4.8 °F /  -20.4 °C 1041.9in /  35278.7hPa Calm     93% 0.0in /  0mm WeatherDisplay:10.37 W/m2 FEW
18:10 -3.9 °F /  -19.9 °C -4.8 °F /  -20.4 °C 1041.9in /  35278.7hPa Calm     93% 0.0in /  0mm WeatherDisplay:10.37 W/m2 FEW
18:15 -3.9 °F /  -19.9 °C -4.9 °F /  -20.5 °C 1041.9in /  35278.7hPa Calm     93% 0.0in /  0mm WeatherDisplay:10.37 W/m2 FEW
18:24 -3.9 °F /  -19.9 °C -4.9 °F /  -20.5 °C 1042.2in /  35288.9hPa Calm     93% 0.0in /  0mm WeatherDisplay:10.37 W/m2 FEW
18:31 -4.0 °F /  -20 °C -4.9 °F /  -20.5 °C 1042.2in /  35288.9hPa Calm     93% 0.0in /  0mm WeatherDisplay:10.37 W/m2 FEW
18:37 -4.0 °F /  -20 °C -4.9 °F /  -20.5 °C 1042.2in /  35288.9hPa Calm     93% 0.0in /  0mm WeatherDisplay:10.37 W/m2 FEW
19:00 -4.1 °F /  -20.1 °C -5.0 °F /  -20.6 °C 1042.2in /  35288.9hPa Calm     93% 0.0in /  0mm WeatherDisplay:10.37 W/m2 FEW
19:05 -4.1 °F /  -20.1 °C -5.0 °F /  -20.6 °C 1042.2in /  35288.9hPa Calm     93% 0.0in /  0mm WeatherDisplay:10.37 W/m2 FEW
19:10 -4.0 °F /  -20 °C -4.9 °F /  -20.5 °C 1042.2in /  35288.9hPa Calm     93% 0.0in /  0mm WeatherDisplay:10.37 W/m2 FEW
19:15 -4.0 °F /  -20 °C -4.9 °F /  -20.5 °C 1042.2in /  35288.9hPa Calm     93% 0.0in /  0mm WeatherDisplay:10.37 W/m2 FEW
19:20 -4.0 °F /  -20 °C -4.9 °F /  -20.5 °C 1042.2in /  35288.9hPa Calm     93% 0.0in /  0mm WeatherDisplay:10.37 W/m2 FEW
19:25 -4.0 °F /  -20 °C -4.9 °F /  -20.5 °C 1042.2in /  35288.9hPa Calm     93% 0.0in /  0mm WeatherDisplay:10.37 W/m2 FEW
19:30 -4.0 °F /  -20 °C -4.9 °F /  -20.5 °C 1042.2in /  35288.9hPa Calm     93% 0.0in /  0mm WeatherDisplay:10.37 W/m2 FEW
19:35 -4.0 °F /  -20 °C -4.9 °F /  -20.5 °C 1042.2in /  35288.9hPa Calm     93% 0.0in /  0mm WeatherDisplay:10.37 W/m2 FEW
19:44 -4.0 °F /  -20 °C -4.9 °F /  -20.5 °C 1042.2in /  35288.9hPa Calm     93% 0.0in /  0mm WeatherDisplay:10.37 W/m2 FEW
19:51 -4.0 °F /  -20 °C -4.9 °F /  -20.5 °C 1042.2in /  35288.9hPa Calm     93% 0.0in /  0mm WeatherDisplay:10.37 W/m2 FEW
20:03 -3.9 °F /  -19.9 °C -4.9 °F /  -20.5 °C 1042.2in /  35288.9hPa Calm     93% 0.0in /  0mm WeatherDisplay:10.37 W/m2 FEW
20:08 -3.9 °F /  -19.9 °C -5.1 °F /  -20.6 °C 1042.2in /  35288.9hPa Calm     92% 0.0in /  0mm WeatherDisplay:10.37 W/m2 FEW
20:13 -3.9 °F /  -19.9 °C -5.1 °F /  -20.6 °C 1042.5in /  35299.1hPa Calm     92% 0.0in /  0mm WeatherDisplay:10.37 W/m2 FEW
20:22 -3.9 °F /  -19.9 °C -5.0 °F /  -20.6 °C 1042.2in /  35288.9hPa Calm     92% 0.0in /  0mm WeatherDisplay:10.37 W/m2 FEW
20:27 -3.9 °F /  -19.9 °C -4.8 °F /  -20.4 °C 1042.2in /  35288.9hPa Calm     93% 0.0in /  0mm WeatherDisplay:10.37 W/m2 FEW
20:32 -3.9 °F /  -19.9 °C -4.8 °F /  -20.4 °C 1042.2in /  35288.9hPa Calm     93% 0.0in /  0mm WeatherDisplay:10.37 W/m2 FEW
20:37 -3.9 °F /  -19.9 °C -4.8 °F /  -20.4 °C 1042.5in /  35299.1hPa Calm     93% 0.0in /  0mm WeatherDisplay:10.37 W/m2 FEW
20:49 -3.9 °F /  -19.9 °C -5.0 °F /  -20.6 °C 1042.5in /  35299.1hPa Calm     92% 0.0in /  0mm WeatherDisplay:10.37 W/m2 FEW
20:54 -3.9 °F /  -19.9 °C -5.0 °F /  -20.6 °C 1042.5in /  35299.1hPa Calm     92% 0.0in /  0mm WeatherDisplay:10.37 W/m2 FEW
20:59 -3.9 °F /  -19.9 °C -5.0 °F /  -20.6 °C 1042.5in /  35299.1hPa Calm     92% 0.0in /  0mm WeatherDisplay:10.37 W/m2 FEW
21:11 -3.9 °F /  -19.9 °C -5.0 °F /  -20.6 °C 1042.5in /  35299.1hPa Calm     92% 0.0in /  0mm WeatherDisplay:10.37 W/m2 FEW
21:18 -3.9 °F /  -19.9 °C -5.0 °F /  -20.6 °C 1042.5in /  35299.1hPa Calm     92% 0.0in /  0mm WeatherDisplay:10.37 W/m2 FEW
21:28 -3.9 °F /  -19.9 °C -5.0 °F /  -20.6 °C 1042.9in /  35312.6hPa Calm     92% 0.0in /  0mm WeatherDisplay:10.37 W/m2 FEW
21:33 -3.8 °F /  -19.9 °C -4.9 °F /  -20.5 °C 1042.9in /  35312.6hPa Calm     92% 0.0in /  0mm WeatherDisplay:10.37 W/m2 FEW
21:41 -3.8 °F /  -19.9 °C -4.9 °F /  -20.5 °C 1042.9in /  35312.6hPa Calm     92% 0.0in /  0mm WeatherDisplay:10.37 W/m2 FEW
21:49 -3.8 °F /  -19.9 °C -4.9 °F /  -20.5 °C 1042.5in /  35299.1hPa Calm     92% 0.0in /  0mm WeatherDisplay:10.37 W/m2 FEW
21:54 -3.8 °F /  -19.9 °C -4.9 °F /  -20.5 °C 1042.5in /  35299.1hPa Calm     92% 0.0in /  0mm WeatherDisplay:10.37 W/m2 FEW
21:59 -3.8 °F /  -19.9 °C -4.9 °F /  -20.5 °C 1042.5in /  35299.1hPa Calm     92% 0.0in /  0mm WeatherDisplay:10.37 W/m2 FEW
22:04 -3.8 °F /  -19.9 °C -4.9 °F /  -20.5 °C 1042.5in /  35299.1hPa Calm     92% 0.0in /  0mm WeatherDisplay:10.37 W/m2 FEW
22:09 -3.8 °F /  -19.9 °C -4.9 °F /  -20.5 °C 1042.9in /  35312.6hPa Calm     92% 0.0in /  0mm WeatherDisplay:10.37 W/m2 FEW
22:24 -3.8 °F /  -19.9 °C -4.9 °F /  -20.5 °C 1042.9in /  35312.6hPa Calm     92% 0.0in /  0mm WeatherDisplay:10.37 W/m2 FEW
22:29 -3.8 °F /  -19.9 °C -4.9 °F /  -20.5 °C 1042.9in /  35312.6hPa Calm     92% 0.0in /  0mm WeatherDisplay:10.37 W/m2 FEW
22:39 -3.8 °F /  -19.9 °C -4.9 °F /  -20.5 °C 1042.9in /  35312.6hPa Calm     92% 0.0in /  0mm WeatherDisplay:10.37 W/m2 FEW
22:44 -3.8 °F /  -19.9 °C -4.9 °F /  -20.5 °C 1042.9in /  35312.6hPa Calm     92% 0.0in /  0mm WeatherDisplay:10.37 W/m2 FEW
22:49 -3.7 °F /  -19.8 °C -4.8 °F /  -20.4 °C 1042.9in /  35312.6hPa Calm     92% 0.0in /  0mm WeatherDisplay:10.37 W/m2 FEW
22:54 -3.7 °F /  -19.8 °C -4.8 °F /  -20.4 °C 1042.9in /  35312.6hPa Calm     92% 0.0in /  0mm WeatherDisplay:10.37 W/m2 FEW
23:03 -3.7 °F /  -19.8 °C -4.8 °F /  -20.4 °C 1042.9in /  35312.6hPa Calm     92% 0.0in /  0mm WeatherDisplay:10.37 W/m2 FEW
23:12 -3.7 °F /  -19.8 °C -4.8 °F /  -20.4 °C 1042.9in /  35312.6hPa Calm     92% 0.0in /  0mm WeatherDisplay:10.37 W/m2 FEW
23:21 -3.7 °F /  -19.8 °C -4.8 °F /  -20.4 °C 1042.9in /  35312.6hPa Calm     92% 0.0in /  0mm WeatherDisplay:10.37 W/m2 FEW
23:28 -3.7 °F /  -19.8 °C -4.8 °F /  -20.4 °C 1042.9in /  35312.6hPa Calm     92% 0.0in /  0mm WeatherDisplay:10.37 W/m2 FEW
23:37 -3.7 °F /  -19.8 °C -4.8 °F /  -20.4 °C 1042.9in /  35312.6hPa Calm     92% 0.0in /  0mm WeatherDisplay:10.37 W/m2 FEW
23:42 -3.7 °F /  -19.8 °C -4.8 °F /  -20.4 °C 1042.9in /  35312.6hPa Calm     92% 0.0in /  0mm WeatherDisplay:10.37 W/m2 FEW
23:48 -3.7 °F /  -19.8 °C -4.8 °F /  -20.4 °C 1042.9in /  35312.6hPa Calm     92% 0.0in /  0mm WeatherDisplay:10.37 W/m2 FEW
23:57 -3.7 °F /  -19.8 °C -4.8 °F /  -20.4 °C 1042.9in /  35312.6hPa Calm     92% 0.0in /  0mm WeatherDisplay:10.37 W/m2 FEW
Tuulensuunkaari, Veikkola, Suomi
Compliments of Weather Underground - 2.25 mb